| time (UTC) | temp C | wind direction | speed KPH | gust KPH | rain 1hr cm | rain 24hr cm | rain mn cm | humidity % | barometer mb |
| 20260904100025 | 13 | 46 | 0.0 | 0.0 | 0.00 | 0.84 | 0.00 | 96 | 1007.0 |
| 20260904094522 | 13 | 52 | 0.0 | 0.0 | 0.00 | 0.97 | 0.00 | 96 | 1006.9 |
| 20260904093022 | 13 | 355 | 0.0 | 0.0 | 0.00 | 0.97 | 0.00 | 96 | 1006.9 |
| 20260904091523 | 13 | 355 | 0.0 | 0.0 | 0.00 | 0.97 | 0.00 | 96 | 1006.9 |
| 20260904090022 | 13 | 313 | 0.0 | 0.0 | 0.00 | 0.97 | 0.00 | 96 | 1006.9 |
| 20260904084522 | 13 | 49 | 0.0 | 0.0 | 0.00 | 1.09 | 0.00 | 96 | 1007.0 |
| 20260904083018 | 13 | 40 | 0.0 | 0.0 | 0.00 | 1.09 | 0.00 | 96 | 1007.1 |
| 20260904081517 | 13 | 57 | 0.0 | 0.0 | 0.00 | 1.09 | 0.00 | 96 | 1007.1 |
| 20260904080018 | 13 | 10 | 0.0 | 0.0 | 0.00 | 1.09 | 0.00 | 96 | 1007.1 |
| 20260904074516 | 13 | 10 | 0.0 | 0.0 | 0.00 | 1.22 | 0.00 | 96 | 1007.0 |
| 20260904073014 | 13 | 10 | 0.0 | 0.0 | 0.03 | 1.22 | 0.00 | 96 | 1007.0 |
| 20260904071513 | 13 | 10 | 0.0 | 0.0 | 0.03 | 1.22 | 0.00 | 96 | 1007.0 |
| 20260904070030 | 13 | 10 | 0.0 | 0.0 | 0.03 | 1.22 | 0.00 | 96 | 1006.9 |
| 20260904064508 | 13 | 10 | 0.0 | 0.0 | 0.03 | 1.30 | 1.22 | 96 | 1006.9 |
| 20260904063013 | 13 | 10 | 0.0 | 0.0 | 0.00 | 1.27 | 1.19 | 96 | 1006.9 |
| 20260904061506 | 13 | 10 | 0.0 | 0.0 | 0.00 | 1.27 | 1.19 | 96 | 1006.8 |
| 20260904060005 | 13 | 10 | 0.0 | 0.0 | 0.00 | 1.27 | 1.19 | 96 | 1006.8 |
| 20260904054503 | 13 | 10 | 0.0 | 0.0 | 0.00 | 1.30 | 1.19 | 96 | 1006.7 |
| 20260904053003 | 14 | 10 | 0.0 | 0.0 | 0.00 | 1.30 | 1.19 | 96 | 1006.9 |
| 20260904051604 | 14 | 10 | 0.0 | 0.0 | 0.00 | 1.30 | 1.19 | 96 | 1006.9 |
| 20260904050005 | 14 | 10 | 0.0 | 0.0 | 0.00 | 1.30 | 1.19 | 96 | 1007.0 |
| 20260904044500 | 14 | 10 | 0.0 | 0.0 | 0.03 | 1.30 | 1.19 | 95 | 1007.1 |
| 20260904043100 | 14 | 10 | 0.0 | 0.0 | 0.03 | 1.30 | 1.19 | 95 | 1007.2 |
| 20260904041559 | 14 | 321 | 0.0 | 0.0 | 0.03 | 1.30 | 1.19 | 95 | 1007.1 |
| 20260904040057 | 14 | 341 | 0.0 | 0.0 | 0.03 | 1.30 | 1.19 | 96 | 1006.9 |
| 20260904034600 | 15 | 290 | 0.0 | 0.0 | 0.00 | 1.27 | 1.17 | 96 | 1006.8 |
| 20260904033056 | 15 | 248 | 0.0 | 0.0 | 0.00 | 1.27 | 1.17 | 95 | 1006.8 |
| 20260904031555 | 15 | 247 | 0.0 | 0.0 | 0.00 | 1.27 | 1.17 | 95 | 1006.6 |
| 20260904030058 | 15 | 247 | 0.0 | 0.0 | 0.03 | 1.27 | 1.17 | 95 | 1006.5 |
| 20260904024552 | 15 | 213 | 0.0 | 0.0 | 0.03 | 1.27 | 1.17 | 95 | 1006.5 |
| 20260904023058 | 15 | 17 | 0.0 | 0.0 | 0.03 | 1.27 | 1.17 | 95 | 1006.6 |
| 20260904021554 | 15 | 17 | 0.0 | 0.0 | 0.03 | 1.27 | 1.17 | 95 | 1006.6 |
| 20260904020050 | 15 | 17 | 0.0 | 0.0 | 0.00 | 1.24 | 1.14 | 94 | 1006.6 |
| 20260904014549 | 15 | 17 | 0.0 | 0.0 | 0.00 | 1.24 | 1.14 | 95 | 1006.8 |
| 20260904013049 | 16 | 55 | 0.0 | 0.0 | 0.00 | 1.24 | 1.14 | 95 | 1006.9 |
| 20260904011606 | 16 | 55 | 0.0 | 0.0 | 0.00 | 1.24 | 1.14 | 95 | 1006.9 |
| 20260904010054 | 16 | 5 | 0.0 | 0.0 | 0.00 | 1.24 | 1.14 | 95 | 1006.9 |
| 20260904004546 | 15 | 5 | 0.0 | 0.0 | 0.00 | 1.24 | 1.14 | 94 | 1007.0 |
| 20260904003046 | 16 | 48 | 0.0 | 0.0 | 0.00 | 1.24 | 1.14 | 94 | 1006.9 |
| 20260904001547 | 16 | 340 | 0.0 | 0.0 | 0.00 | 1.24 | 1.14 | 94 | 1007.0 |
| 20260904000052 | 16 | 204 | 0.0 | 0.0 | 0.00 | 1.24 | 1.14 | 94 | 1006.9 |
| 20260903234547 | 16 | 261 | 0.0 | 0.0 | 0.00 | 1.24 | 1.14 | 94 | 1007.0 |
| 20260903233043 | 16 | 261 | 0.0 | 0.0 | 0.00 | 1.24 | 1.14 | 95 | 1007.0 |
| 20260903231544 | 16 | 261 | 0.0 | 0.0 | 0.00 | 1.24 | 1.14 | 95 | 1007.2 |
| 20260903230046 | 16 | 219 | 0.0 | 0.0 | 0.00 | 1.24 | 1.14 | 96 | 1007.2 |
| 20260903224543 | 16 | 252 | 0.0 | 0.0 | 0.00 | 1.24 | 1.14 | 96 | 1007.2 |
| 20260903223038 | 15 | 229 | 0.0 | 0.0 | 0.00 | 1.24 | 1.14 | 96 | 1007.5 |
| 20260903221538 | 15 | 272 | 0.0 | 0.0 | 0.00 | 1.24 | 1.14 | 96 | 1007.7 |
| 20260903220040 | 16 | 249 | 0.0 | 0.0 | 0.00 | 1.24 | 1.14 | 97 | 1007.8 |
| 20260903214542 | 16 | 249 | 0.0 | 0.0 | 0.00 | 1.24 | 1.14 | 97 | 1007.8 |
| 20260903213046 | 16 | 249 | 0.0 | 0.0 | 0.00 | 1.24 | 1.14 | 96 | 1007.9 |
| 20260903211535 | 16 | 242 | 0.0 | 0.0 | 0.00 | 1.24 | 1.14 | 97 | 1007.7 |
| 20260903210033 | 16 | 242 | 0.0 | 0.0 | 0.00 | 1.24 | 1.14 | 97 | 1007.8 |
| 20260903204531 | 16 | 242 | 0.0 | 0.0 | 0.00 | 1.24 | 1.14 | 97 | 1007.8 |
| 20260903203043 | 16 | 226 | 0.0 | 0.0 | 0.00 | 1.24 | 1.14 | 96 | 1007.7 |
| 20260903201535 | 16 | 184 | 0.0 | 3.2 | 0.00 | 1.24 | 1.14 | 97 | 1007.7 |
| 20260903200026 | 16 | 233 | 0.0 | 0.0 | 0.00 | 1.24 | 1.14 | 97 | 1007.7 |
| 20260903194522 | 16 | 207 | 0.0 | 0.0 | 0.00 | 1.24 | 1.14 | 97 | 1007.8 |
| 20260903193026 | 16 | 240 | 0.0 | 0.0 | 0.00 | 1.24 | 1.14 | 97 | 1008.1 |
| 20260903191515 | 16 | 221 | 0.0 | 0.0 | 0.00 | 1.24 | 1.14 | 97 | 1008.1 |
| 20260903190013 | 16 | 202 | 0.0 | 0.0 | 0.00 | 1.24 | 1.14 | 97 | 1008.2 |
| 20260903184510 | 16 | 198 | 0.0 | 0.0 | 0.03 | 1.24 | 1.14 | 97 | 1008.3 |
| 20260903183009 | 16 | 194 | 0.0 | 0.0 | 0.05 | 1.24 | 1.14 | 97 | 1008.3 |
| 20260903181512 | 16 | 259 | 0.0 | 0.0 | 0.08 | 1.24 | 1.14 | 97 | 1008.4 |
| 20260903180015 | 15 | 221 | 0.0 | 0.0 | 0.08 | 1.24 | 1.14 | 96 | 1008.5 |
| 20260903174504 | 15 | 226 | 0.0 | 0.0 | 0.05 | 1.22 | 1.12 | 97 | 1008.5 |
| 20260903173004 | 15 | 269 | 0.0 | 0.0 | 0.03 | 1.19 | 1.09 | 97 | 1008.4 |
| 20260903171506 | 15 | 293 | 0.0 | 0.0 | 0.00 | 1.17 | 1.07 | 97 | 1008.3 |
| 20260903170005 | 15 | 261 | 0.0 | 0.0 | 0.00 | 1.17 | 1.07 | 97 | 1008.2 |
| 20260903164504 | 15 | 258 | 0.0 | 0.0 | 0.00 | 1.17 | 1.07 | 97 | 1008.1 |
| 20260903163002 | 15 | 192 | 0.0 | 0.0 | 0.03 | 1.17 | 1.07 | 97 | 1008.1 |
| 20260903161600 | 15 | 265 | 0.0 | 0.0 | 0.03 | 1.17 | 1.07 | 97 | 1008.0 |
| 20260903160100 | 15 | 265 | 0.0 | 0.0 | 0.03 | 1.17 | 1.07 | 96 | 1008.0 |
| 20260903154601 | 15 | 225 | 0.0 | 0.0 | 0.03 | 1.17 | 1.07 | 96 | 1008.0 |
| 20260903153059 | 15 | 225 | 0.0 | 0.0 | 0.00 | 1.14 | 1.04 | 96 | 1008.0 |
| 20260903151559 | 15 | 225 | 0.0 | 0.0 | 0.00 | 1.14 | 1.04 | 96 | 1007.8 |
| 20260903150058 | 15 | 225 | 0.0 | 0.0 | 0.00 | 1.14 | 1.04 | 96 | 1007.8 |
| 20260903144606 | 15 | 225 | 0.0 | 0.0 | 0.00 | 1.14 | 1.04 | 96 | 1007.8 |
| 20260903143056 | 15 | 225 | 0.0 | 0.0 | 0.03 | 1.14 | 1.04 | 96 | 1007.8 |
| 20260903141557 | 15 | 225 | 0.0 | 0.0 | 0.08 | 1.14 | 1.04 | 96 | 1007.8 |
| 20260903140056 | 15 | 241 | 0.0 | 4.8 | 0.13 | 1.14 | 1.04 | 96 | 1007.8 |
| 20260903134556 | 15 | 227 | 0.0 | 0.0 | 0.13 | 1.12 | 1.02 | 96 | 1007.7 |
| 20260903133059 | 15 | 219 | 0.0 | 0.0 | 0.15 | 1.12 | 1.02 | 96 | 1007.5 |
| 20260903131553 | 15 | 202 | 0.0 | 0.0 | 0.18 | 1.07 | 0.97 | 96 | 1007.4 |
| 20260903130053 | 15 | 202 | 0.0 | 0.0 | 0.18 | 1.02 | 0.91 | 96 | 1007.3 |
| 20260903124605 | 15 | 202 | 0.0 | 0.0 | 0.20 | 0.99 | 0.89 | 96 | 1007.4 |
| 20260903123051 | 15 | 202 | 0.0 | 0.0 | 0.23 | 0.97 | 0.86 | 96 | 1007.3 |
| 20260903121549 | 15 | 202 | 0.0 | 0.0 | 0.15 | 0.86 | 0.76 | 96 | 1007.4 |
| 20260903120058 | 15 | 198 | 0.0 | 0.0 | 0.15 | 0.84 | 0.71 | 96 | 1007.6 |
| 20260903114546 | 15 | 192 | 1.6 | 6.4 | 0.13 | 0.79 | 0.69 | 96 | 1007.6 |
| 20260903113115 | 15 | 177 | 0.0 | 0.0 | 0.13 | 0.71 | 0.64 | 96 | 1007.8 |
| 20260903111545 | 15 | 184 | 0.0 | 0.0 | 0.15 | 0.71 | 0.61 | 95 | 1007.8 |
| 20260903110041 | 15 | 215 | 0.0 | 0.0 | 0.20 | 0.69 | 0.58 | 95 | 1007.9 |
| 20260903104553 | 15 | 203 | 0.0 | 0.0 | 0.23 | 0.66 | 0.56 | 95 | 1008.2 |
| 20260903103036 | 15 | 199 | 0.0 | 0.0 | 0.23 | 0.61 | 0.51 | 95 | 1008.2 |
| 20260903101530 | 15 | 191 | 0.0 | 0.0 | 0.20 | 0.56 | 0.46 | 95 | 1008.3 |